Location: Brodnica
(53.2562°N, 19.4033°E)
Time: 21:55:33
(UTC+02:00)

ISS - Visible Passes

Search period start: 20 September 2018 00:00
Search period end: 30 September 2018 00:00
Orbit: 403 x 408 km, 51.6° (Epoch: 20 September)

Date Brightness Start Highest point End Pass type
(mag) Time Alt. Az. Time Alt. Az. Time Alt. Az.
22 Sep -1.3 20:28:34 10° S 20:28:50 11° S 20:28:50 11° S visible
23 Sep -1.6 19:38:01 10° SSE 19:39:13 12° SE 19:39:35 11° SE visible
23 Sep -1.1 21:11:58 10° SW 21:12:18 12° SW 21:12:18 12° SW visible
24 Sep -2.6 20:20:25 10° SSW 20:22:51 27° SSE 20:22:51 27° SSE visible
25 Sep -2.2 19:29:05 10° SSW 19:31:35 20° SSE 19:33:16 14° ESE visible
25 Sep -1.9 21:04:25 10° WSW 21:05:57 24° SW 21:05:57 24° SW visible
26 Sep -3.4 20:12:39 10° SW 20:15:49 42° SSE 20:16:13 40° SE visible
26 Sep -0.6 21:48:51 10° W 21:48:54 10° W 21:48:54 10° W visible
27 Sep -2.8 19:21:01 10° SW 19:24:00 32° SSE 19:26:24 14° E visible
27 Sep -2.5 20:56:57 10° WSW 20:59:04 35° WSW 20:59:04 35° WSW visible
28 Sep -3.7 20:05:05 10° WSW 20:08:21 57° S 20:09:11 41° ESE visible
28 Sep -0.7 21:41:27 10° W 21:41:51 13° W 21:41:51 13° W visible
29 Sep -3.3 19:13:16 10° WSW 19:16:28 47° SSE 19:19:13 13° E visible
29 Sep -2.8 20:49:31 10° W 20:51:53 42° WSW 20:51:53 42° WSW visible
